OpenBCM V1.07b12 (Linux)

Packet Radio Mailbox

SR8BBS

[OBCM_Lublin]

 Login: GUEST





  
I0OJJ  > KEPS     30.06.25 05:58z 343 Lines 16342 Bytes #13 (0) @ AMSAT
BID : ORB25174.1
Read: GUEST
Subj: 2Line Orbital Elements 25174.AMSAT
Path: SR8BBS<SR6DWH<SR1BSZ<EA2RCF<I0OJJ
Sent: 250623/0025z @:I0OJJ.ITA.EU [Rome] obcm1.08-10-g596e
From: I0OJJ @ I0OJJ.ITA.EU (Gustavo)
To:   KEPS @ AMSAT
X-Info: This message was generated automatically


QST de W1STR

AMSAT Orbital Elements for Amateur Satellites in TLE Format
From Orbital Analysis Office
New England Sci-Tech STEM Education Center
Natick, MA June 23, 2025
To all radio amateurs


These element sets describe the orbits of various satellites 
in use by the amateur radio community. For details see:
www.amsat.org/keplerian-elements-formats/

A daily update of element sets is available at:
www.amsat.org/tle/daily-bulletin.txt
or without bulletin text:
www.amsat.org/tle/dailytle.txt


AO-07
1 07530U 74089B   25172.28541208 -.00000029  00000-0  10591-3 0  9991
2 07530 101.9927 176.6740 0012638  99.6170 272.3047 12.53689707315292
UO-11
1 14781U 84021B   25173.36569056  .00000907  00000-0  10120-3 0  9997
2 14781  97.7551 139.4818 0006414 300.9893  59.0694 14.89421026203542
AO-27
1 22825U 93061C   25173.57454102  .00000064  00000-0  41763-4 0  9999
2 22825  98.7360 235.1947 0009509  77.3597 282.8648 14.30803387655849
FO-29
1 24278U 96046B   25173.46868906 -.00000012  00000-0  26826-4 0  9995
2 24278  98.5745  65.6640 0349088 309.3454  47.7225 13.53249526424513
NOAA-15
1 25338U 98030A   25173.64302866  .00000177  00000-0  90366-4 0  9997
2 25338  98.5342 198.4594 0009455 327.1919  32.8674 14.26986400410262
GO-32
1 25397U 98043D   25173.40685098  .00000035  00000-0  35365-4 0  9992
2 25397  98.9708 152.7939 0001782 135.0709 225.0614 14.24317995400119
ISS
1 25544U 98067A   25173.70435133  .00010306  00000-0  18707-3 0  9990
2 25544  51.6391 279.7295 0002026 272.7719 232.5001 15.50190580516013
NO-44
1 26931U 01043C   25173.70887665  .00000086  00000-0  63151-4 0  9998
2 26931  67.0510  93.8952 0006117 276.5192  83.5213 14.31740476239143
SO-50
1 27607U 02058C   25172.70203603  .00001007  00000-0  14281-3 0  9992
2 27607  64.5513 163.1162 0057751 331.3735  28.4203 14.81653566211028
CO-55
1 27844U 03031E   25173.46792468  .00000229  00000-0  11851-3 0  9998
2 27844  98.6753 181.5748 0010344 144.0988 216.0888 14.24005404140478
CO-57
1 27848U 03031J   25173.49265176  .00000191  00000-0  10356-3 0  9993
2 27848  98.6782 181.5952 0009899 160.4074 199.7486 14.23338826140200
RS-22
1 27939U 03042A   25173.58522088  .00000718  00000-0  12174-3 0  9999
2 27939  98.3288 343.3513 0010777 334.8614 100.9615 14.72381337162744
CO-58
1 28895U 05043F   25173.37397887  .00001042  00000-0  17795-3 0  9993
2 28895  98.2512 317.8849 0013223 265.6817  94.2878 14.71050537 48820
CO-65
1 32785U 08021C   25173.57451757  .00002902  00000-0  21135-3 0  9993
2 32785  97.7858 144.8352 0010471 157.0402 203.1294 15.04539394931030
CO-66
1 32791U 08021J   25173.61636151  .00008328  00000-0  40141-3 0  9994
2 32791  97.7270 153.9499 0005714 114.0168 246.1664 15.18972300932474
RS-30
1 32953U 08025A   25173.84199795  .00000032  00000-0  16046-3 0  9992
2 32953  82.5019 218.9306 0019520  20.9296 339.2578 12.43165477775188
NOAA-19
1 33591U 09005A   25173.79581877  .00000132  00000-0  94235-4 0  9998
2 33591  98.9968 238.5742 0013084 330.4179  29.6251 14.13380173843973
SRMSAT
1 37841U 11058D   25173.41148370  .00000362  00000-0  52509-4 0  9990
2 37841  19.9725  76.8954 0011806 205.5278 311.5655 14.11439780706920
ZACUBE-1
1 39417U 13066B   25173.75657620  .00003934  00000-0  34250-3 0  9992
2 39417  97.7799 130.6995 0044240  10.6628 349.5521 14.96764001626881
Delfi-N3xt
1 39428U 13066N   25173.53551095  .00004318  00000-0  44109-3 0  9990
2 39428  97.8351  91.0422 0083477 318.9603  40.5351 14.88553450621187
GOMX-1
1 39430U 13066Q   25173.57613682  .00001391  00000-0  22171-3 0  9991
2 39430  97.6824  31.4424 0133058 150.2772 210.6080 14.67681384617312
LO-74
1 39440U 13066AA  25173.30312594  .00002081  00000-0  21382-3 0  9991
2 39440  97.8497 117.7756 0063005 136.9744 223.6425 14.90002550623335
AO-73
1 39444U 13066AE  25173.46745954  .00004234  00000-0  31781-3 0  9998
2 39444  97.7813 135.4334 0041670 345.8883  14.1174 15.02492584625529
DTUSAT-2
1 40030U 14033W   25172.36495276  .00003890  00000-0  25435-3 0  9999
2 40030  98.0547 144.7543 0009926  30.7813 329.3995 15.08398673598178
EO-80
1 40032U 14033Y   25173.37956916  .00004540  00000-0  29546-3 0  9996
2 40032  98.0436 145.4553 0007383 328.7598  31.3190 15.08496460598306
LILACSAT-2
1 40908U 15049K   25173.80802651  .00008039  00000-0  20878-3 0  9996
2 40908  97.5050 194.4748 0011088 110.7548 249.4886 15.39179181540263
IO-86
1 40931U 15052B   25151.18580175  .00001241  00000-0  78118-4 0  9996
2 40931   6.0006  24.0987 0012733 338.8432  21.1169 14.78805930523047
Horyu-4
1 41340U 16012D   25173.33422178  .00016689  00000-0  43770-3 0  9994
2 41340  30.9980  46.1321 0005886 197.4538 162.5905 15.37372413514750
Lapan A3
1 41603U 16040E   25173.84341286  .00002484  00000-0  88102-4 0  9990
2 41603  97.1364 177.9307 0009830 213.7798 146.2818 15.29939296499813
CAS-2T
1 41847U 16066G   25173.43676168  .00001382  00000-0  20360-3 0  9990
2 41847  98.4198 247.7871 0346920 139.4877 223.2701 14.43522209452879
CAS-4B
1 42759U 17034B   25173.55791941  .00049725  00000-0  48912-3 0  9995
2 42759  43.0060 244.4343 0020191  17.0180 343.1359 15.64957285444637
CAS-4A
1 42761U 17034D   25173.58008292  .00053883  00000-0  50094-3 0  9995
2 42761  43.0099 241.3104 0021261  21.8454 338.3315 15.66302597444662
TechnoSat
1 42829U 17042E   25173.43701467  .00001443  00000-0  11493-3 0  9992
2 42829  97.3861 341.5352 0014894 228.8967 131.0972 15.01763245432659
AO-91
1 43017U 17073E   25173.36056343  .00006240  00000-0  31736-3 0  9996
2 43017  97.5250  43.8105 0173902 122.7367 239.0757 15.04906148411137
S-Net D
1 43186U 18014G   25173.20626036  .00003719  00000-0  22062-3 0  9994
2 43186  97.5623  75.9844 0009193 170.9589 189.1808 15.11931571404281
S-Net B
1 43187U 18014H   25173.47655647  .00003666  00000-0  21764-3 0  9993
2 43187  97.5628  76.2244 0010036 166.3184 193.8321 15.11912048404328
S-Net A
1 43188U 18014J   25172.28004925  .00003692  00000-0  21908-3 0  9998
2 43188  97.5632  75.1914 0009772 171.0454 189.0952 15.11929090404146
S-Net C
1 43189U 18014K   25173.14807070  .00003790  00000-0  22480-3 0  9992
2 43189  97.5652  76.0674 0011559 162.3455 197.8179 15.11905409402821
Ten-Koh
1 43677U 18084G   25173.46527204  .00001519  00000-0  12527-3 0  9992
2 43677  98.0855 346.2314 0006379 207.6872 152.4011 15.00626347362171
PO-101
1 43678U 18084H   25173.81119471  .00001088  00000-0  96601-4 0  9992
2 43678  98.1027 350.4410 0007766 241.2562 118.7879 14.98376588362362
QO-100
1 43700U 18090A   25173.57798821  .00000152  00000-0  00000-0 0  9995
2 43700   0.0181  60.2654 0002204  71.7233  12.8852  1.00273098 24079
MinXSS-2
1 43758U 18099A   25173.44555394  .00011927  00000-0  46427-3 0  9997
2 43758  97.5022 239.5243 0013315 110.4699 249.7970 15.26073080358933
AO-95
1 43770U 18099N   25173.44245007  .00007001  00000-0  35274-3 0  9994
2 43770  97.4915 231.3867 0011434 160.2260 199.9419 15.17431113358508
RANGE-A
1 43773U 18099R   25173.53004530  .00003065  00000-0  19647-3 0  9993
2 43773  97.4480 221.5562 0012506 141.2559 218.9569 15.09193720358173
MOVE-II
1 43780U 18099Y   25173.44599899  .00363943  00000-0  15330-2 0  9996
2 43780  97.4640 250.1451 0005613 213.0607 147.0313 15.84533462359834
SNUSat 2
1 43782U 18099AA  25173.55458988  .00005314  00000-0  28927-3 0  9995
2 43782  97.4594 228.1428 0013694 108.1219 252.1505 15.14781664358465
SnugLite
1 43784U 18099AC  25173.60173829  .00005829  00000-0  29173-3 0  9996
2 43784  97.4408 227.7756 0005199 107.6441 252.5361 15.17772966358611
ITASat 1
1 43786U 18099AE  25173.57454342  .00004497  00000-0  25722-3 0  9992
2 43786  97.4560 227.6341 0015105 156.1781 204.0153 15.13070126358420
EAGLET 1
1 43790U 18099AJ  25173.61281268  .00002883  00000-0  18522-3 0  9994
2 43790  97.4760 227.5856 0013231 139.4510 220.7707 15.09151139358035
ESEO
1 43792U 18099AL  25173.85322763  .00001004  00000-0  79460-4 0  9991
2 43792  97.4480 220.9075 0015186 113.6228 246.6593 15.02666343357813
CSIM
1 43793U 18099AM  25173.20664745  .00073337  00000-0  42529-3 0  9993
2 43793  97.4800 252.1045 0005343 159.4139 200.7344 15.78323228359639
JO-97
1 43803U 18099AX  25173.15032734  .00008142  00000-0  36892-3 0  9994
2 43803  97.4659 232.1149 0009179 101.8683 258.3583 15.21083869358682
Suomi 100
1 43804U 18099AY  25173.11923098  .00006871  00000-0  33458-3 0  9995
2 43804  97.4724 231.3448 0013948 104.5042 255.7741 15.18597937358608
ISAT
1 43879U 18111D   25173.50865272  .00013363  00000-0  45733-3 0  9997
2 43879  97.5955  88.1905 0009970 141.7003 218.4947 15.30321857355671
UWE-4
1 43880U 18111E   25173.65431571  .00009811  00000-0  38101-3 0  9990
2 43880  97.5899  86.7263 0012696 155.8454 204.3382 15.26216962353621
Sparrow
1 43881U 18111F   25173.21876309  .00014587  00000-0  48029-3 0  9991
2 43881  97.6099  90.8209 0006859 174.6426 185.4889 15.31578933355722
Prox-1
1 44339U 19036A   25173.56239848  .00007409  00000-0  91931-3 0  9991
2 44339  23.9982 336.5029 0006712 222.2185 137.7795 14.80191135320034
SONATE
1 44400U 19038Q   25173.52617844  .00553943  15004-3  77800-3 0  9995
2 44400  97.6737 202.4618 0008921 188.6232 171.4896 16.05746649331647
Taurus 1
1 44530U 19059C   25173.83165613  .00003588  00000-0  66441-3 0  9999
2 44530  98.6078 313.8552 0008620   2.8889 357.2361 14.65977992305884
Duchifat 3
1 44854U 19089C   25173.59630325  .00032192  00000-0  60714-3 0  9991
2 44854  36.9428 272.3702 0003378  59.2338 300.8751 15.47576706304967
TO-108
1 44881U 19093C   25173.76122223  .00000573  00000-0  72308-4 0  9999
2 44881  97.7923 249.1355 0013726 182.3049 177.8105 14.85624341298038
